Hourly Data Report for November 10, 2020

CARBERRY CS
MANITOBA
Current Station Operator: ECCC - MSC

49°54'20.900" N
99°21'26.800" W
383.50 m
5010547
71170
WZE

Download Data

Hourly Data (November 2020)
Hourly Data Report for November 10, 2020
TIME
LST
Temp Definition
°C
Dew Point Definition
°C
Rel Hum Definition
%
Precip. Amount Definition
mm

Wind Dir Definition
10's deg

Wind Spd Definition
km/h
Visibility Definition
km
Stn Press Definition
kPa
Hmdx Definition


Wind Chill Definition


Weather Definition


00:00 -10.7 -13.9 77 0.0 27 31   96.61   -21 LegendNANA
01:00 -11.6 -14.8 77 0.0 27 26   96.60   -21 LegendNANA
02:00 -13.7 -16.4 80 0.0 28 24   96.58   -23 LegendNANA
03:00 -14.6 -17.2 81 0.0 27 17   96.55   -23 LegendNANA
04:00 -15.1 -17.6 81 0.0 27 13   96.49   -22 LegendNANA
05:00 -15.7 -18.1 82 0.0 21 8   96.53   -21 LegendNANA
06:00 -16.0 -18.3 83 0.0 23 6   96.58   -20 LegendNANA
07:00 -16.1 -18.4 83 0.0 23 6   96.60   -21 LegendNANA
08:00 -16.4 -18.7 82 0.0 25 10   96.64   -23 LegendNANA
09:00 -15.2 -18.1 78 0.0 23 8   96.66   -21 LegendNANA
10:00 -13.4 -17.1 74 0.0 22 9   96.64   -19 LegendNANA
11:00 -10.9 -15.8 67 0.0 26 12   96.55   -17 LegendNANA
12:00 -9.0 -15.3 60 0.0 25 12   96.47   -15 LegendNANA
13:00 -7.7 -13.5 63 0.0 27 16   96.36   -14 LegendNANA
14:00 -6.5 -13.0 60 0.0 26 9   96.24   -11 LegendNANA
15:00 -6.0 -13.6 55 0.0 25 6   96.21   -9 LegendNANA
16:00 -6.2 -13.3 57 0.0   0   96.19     LegendNANA
17:00 -7.6 -13.6 62 0.0 18 6   96.20   -11 LegendNANA
18:00 -9.0 -14.2 66 0.0 23 5   96.22   -12 LegendNANA
19:00 -11.7 -14.4 81 0.0 30 6   96.19   -15 LegendNANA
20:00 -12.9 -15.0 84 0.0   0   96.14     LegendNANA
21:00 -13.9 -15.3 89 0.0 30 1   96.15   -15 LegendNANA
22:00 -15.0 -16.8 86 0.0   0   96.10     LegendNANA
23:00 -14.8 -16.7 86 0.0 17 2   96.07   -16 LegendNANA

Notes on Data Quality.

Legend

  • E = Estimated
  • M = Missing
  • NA = Not Available*
  • [empty] = Indicates an unobserved value
Date modified: